| time (UTC) | temp F | wind direction | speed MPH | gust MPH | rain 1hr in | rain 24hr in | rain mn in | humidity % | barometer mb |
| 20260507081501 | 66 | 38 | 1.0 | 6.0 | 0.00 | 0.08 | 0.00 | 86 | 1013.3 |
| 20260507080101 | 66 | 54 | 1.0 | 7.0 | 0.00 | 0.08 | 0.00 | 86 | 1013.4 |
| 20260507074605 | 66 | 349 | 0.0 | 4.0 | 0.00 | 0.08 | 0.00 | 87 | 1013.6 |
| 20260507073057 | 66 | 7 | 0.0 | 6.0 | 0.00 | 0.08 | 0.00 | 86 | 1013.5 |
| 20260507071605 | 67 | 335 | 0.0 | 4.0 | 0.00 | 0.08 | 0.00 | 86 | 1013.5 |
| 20260507070106 | 67 | 46 | 0.0 | 4.0 | 0.00 | 0.08 | 0.00 | 85 | 1014.0 |
| 20260507064557 | 67 | 357 | 0.0 | 5.0 | 0.00 | 0.08 | 0.00 | 86 | 1013.8 |
| 20260507063053 | 67 | 329 | 0.0 | 5.0 | 0.00 | 0.08 | 0.00 | 85 | 1013.7 |
| 20260507061553 | 67 | 21 | 0.0 | 6.0 | 0.00 | 0.08 | 0.00 | 85 | 1013.9 |
| 20260507060051 | 67 | 247 | 0.0 | 5.0 | 0.00 | 0.08 | 0.00 | 85 | 1013.4 |
| 20260507054608 | 67 | 350 | 0.0 | 5.0 | 0.00 | 0.08 | 0.00 | 84 | 1013.7 |
| 20260507053058 | 67 | 350 | 0.0 | 5.0 | 0.00 | 0.08 | 0.00 | 85 | 1013.7 |
| 20260507051554 | 67 | 5 | 0.0 | 4.0 | 0.00 | 0.08 | 0.00 | 85 | 1013.6 |
| 20260507050050 | 67 | 360 | 0.0 | 8.0 | 0.00 | 0.08 | 0.00 | 84 | 1013.5 |
| 20260507044552 | 68 | 14 | 0.0 | 4.0 | 0.00 | 0.08 | 0.08 | 84 | 1013.6 |
| 20260507043042 | 68 | 358 | 0.0 | 4.0 | 0.00 | 0.08 | 0.08 | 84 | 1013.3 |
| 20260507041545 | 68 | 359 | 0.0 | 4.0 | 0.00 | 0.08 | 0.08 | 84 | 1013.2 |
| 20260507040139 | 69 | 21 | 1.0 | 6.0 | 0.00 | 0.08 | 0.08 | 84 | 1013.4 |
| 20260507034538 | 69 | 339 | 0.0 | 3.0 | 0.00 | 0.08 | 0.08 | 83 | 1013.4 |
| 20260507033036 | 70 | 13 | 0.0 | 5.0 | 0.00 | 0.08 | 0.08 | 83 | 1013.1 |
| 20260507031537 | 70 | 41 | 0.0 | 3.0 | 0.00 | 0.08 | 0.08 | 83 | 1012.9 |
| 20260507030031 | 70 | 344 | 0.0 | 5.0 | 0.00 | 0.08 | 0.08 | 83 | 1012.6 |
| 20260507024533 | 71 | 15 | 0.0 | 7.0 | 0.00 | 0.08 | 0.08 | 83 | 1012.1 |
| 20260507023023 | 71 | 47 | 1.0 | 6.0 | 0.00 | 0.08 | 0.08 | 83 | 1011.8 |
| 20260507021528 | 72 | 19 | 0.0 | 5.0 | 0.00 | 0.08 | 0.08 | 84 | 1011.6 |
| 20260507020020 | 72 | 7 | 0.0 | 4.0 | 0.00 | 0.08 | 0.08 | 84 | 1011.0 |
| 20260507014521 | 72 | 13 | 0.0 | 4.0 | 0.00 | 0.08 | 0.08 | 84 | 1010.7 |
| 20260507013016 | 73 | 14 | 0.0 | 5.0 | 0.00 | 0.08 | 0.08 | 84 | 1010.6 |
| 20260507011520 | 73 | 19 | 0.0 | 5.0 | 0.00 | 0.08 | 0.08 | 84 | 1010.2 |
| 20260507010021 | 74 | 2 | 0.0 | 6.0 | 0.00 | 0.08 | 0.08 | 84 | 1010.2 |
| 20260507004511 | 74 | 10 | 0.0 | 7.0 | 0.00 | 0.08 | 0.08 | 85 | 1009.9 |
| 20260507003010 | 75 | 342 | 0.0 | 9.0 | 0.00 | 0.08 | 0.08 | 84 | 1009.6 |
| 20260507001509 | 76 | 305 | 1.0 | 7.0 | 0.00 | 0.08 | 0.08 | 85 | 1009.3 |
| 20260507000009 | 77 | 331 | 0.0 | 7.0 | 0.00 | 0.08 | 0.08 | 84 | 1009.2 |
| 20260506234506 | 79 | 44 | 0.0 | 8.0 | 0.00 | 0.08 | 0.08 | 85 | 1009.1 |
| 20260506233006 | 81 | 13 | 0.0 | 0.0 | 0.00 | 0.08 | 0.08 | 89 | 1008.6 |
| 20260506231506 | 81 | 13 | 0.0 | 0.0 | 0.00 | 0.08 | 0.08 | 89 | 1008.5 |
| 20260506230006 | 81 | 13 | 0.0 | 0.0 | 0.00 | 0.08 | 0.08 | 90 | 1008.5 |
| 20260506224504 | 81 | 13 | 0.0 | 0.0 | 0.00 | 0.08 | 0.08 | 89 | 1008.5 |
| 20260506223004 | 82 | 13 | 0.0 | 0.0 | 0.00 | 0.08 | 0.08 | 87 | 1008.3 |
| 20260506221505 | 82 | 13 | 0.0 | 0.0 | 0.00 | 0.08 | 0.08 | 87 | 1008.2 |
| 20260506220003 | 82 | 13 | 0.0 | 0.0 | 0.00 | 0.08 | 0.08 | 86 | 1008.1 |
| 20260506214502 | 82 | 342 | 0.0 | 0.0 | 0.00 | 0.08 | 0.08 | 86 | 1008.3 |
| 20260506213002 | 82 | 342 | 0.0 | 0.0 | 0.00 | 0.08 | 0.08 | 87 | 1008.4 |
| 20260506211600 | 81 | 4 | 0.0 | 0.0 | 0.00 | 0.08 | 0.08 | 89 | 1008.2 |
| 20260506210058 | 81 | 360 | 0.0 | 0.0 | 0.00 | 0.08 | 0.08 | 90 | 1008.6 |
| 20260506204600 | 81 | 360 | 0.0 | 0.0 | 0.00 | 0.08 | 0.08 | 89 | 1008.6 |
| 20260506203057 | 81 | 17 | 0.0 | 0.0 | 0.00 | 0.08 | 0.08 | 92 | 1008.7 |
| 20260506201555 | 80 | 8 | 0.0 | 0.0 | 0.00 | 0.08 | 0.08 | 93 | 1008.9 |
| 20260506200056 | 80 | 8 | 0.0 | 0.0 | 0.00 | 0.08 | 0.08 | 93 | 1009.1 |
| 20260506194519 | 80 | 8 | 0.0 | 0.0 | 0.00 | 0.08 | 0.08 | 92 | 1009.0 |
| 20260506193057 | 80 | 18 | 0.0 | 0.0 | 0.00 | 0.08 | 0.08 | 92 | 1009.1 |
| 20260506191559 | 80 | 352 | 0.0 | 0.0 | 0.00 | 0.08 | 0.08 | 93 | 1009.3 |
| 20260506190053 | 79 | 352 | 0.0 | 0.0 | 0.00 | 0.08 | 0.08 | 95 | 1009.5 |
| 20260506184551 | 78 | 13 | 0.0 | 0.0 | 0.01 | 0.08 | 0.08 | 95 | 1009.6 |
| 20260506183100 | 78 | 1 | 0.0 | 0.0 | 0.05 | 0.08 | 0.08 | 95 | 1009.8 |
| 20260506181601 | 78 | 97 | 0.0 | 0.0 | 0.08 | 0.08 | 0.08 | 95 | 1010.2 |
| 20260506180048 | 78 | 97 | 0.0 | 0.0 | 0.08 | 0.08 | 0.08 | 94 | 1010.6 |
| 20260506174548 | 78 | 97 | 0.0 | 0.0 | 0.07 | 0.07 | 0.07 | 93 | 1010.8 |
| 20260506173112 | 78 | 97 | 0.0 | 0.0 | 0.03 | 0.03 | 0.03 | 91 | 1011.1 |
| 20260506171546 | 79 | 97 | 0.0 | 0.0 | 0.00 | 0.00 | 0.00 | 89 | 1011.0 |
| 20260506164544 | 80 | 97 | 0.0 | 0.0 | 0.00 | 0.00 | 0.00 | 88 | 1011.1 |
| 20260506163051 | 80 | 152 | 0.0 | 0.0 | 0.00 | 0.00 | 0.00 | 89 | 1010.8 |
| 20260506161540 | 79 | 40 | 0.0 | 0.0 | 0.00 | 0.00 | 0.00 | 90 | 1010.6 |
| 20260506160040 | 78 | 40 | 0.0 | 0.0 | 0.00 | 0.00 | 0.00 | 90 | 1010.5 |
| 20260506154542 | 78 | 40 | 0.0 | 0.0 | 0.00 | 0.00 | 0.00 | 90 | 1010.5 |
| 20260506153036 | 78 | 101 | 0.0 | 0.0 | 0.00 | 0.00 | 0.00 | 89 | 1010.4 |
| 20260506151533 | 78 | 81 | 0.0 | 0.0 | 0.00 | 0.00 | 0.00 | 90 | 1010.5 |
| 20260506150030 | 78 | 81 | 0.0 | 0.0 | 0.00 | 0.00 | 0.00 | 91 | 1010.1 |
| 20260506144528 | 77 | 234 | 0.0 | 0.0 | 0.00 | 0.00 | 0.00 | 92 | 1010.1 |
| 20260506143029 | 77 | 342 | 0.0 | 0.0 | 0.00 | 0.00 | 0.00 | 92 | 1009.8 |
| 20260506141527 | 77 | 196 | 0.0 | 0.0 | 0.00 | 0.00 | 0.00 | 93 | 1009.9 |
| 20260506140030 | 76 | 192 | 0.0 | 0.0 | 0.00 | 0.00 | 0.00 | 93 | 1009.9 |
| 20260506134524 | 76 | 192 | 0.0 | 0.0 | 0.00 | 0.00 | 0.00 | 94 | 1010.0 |
| 20260506133024 | 76 | 177 | 0.0 | 0.0 | 0.00 | 0.00 | 0.00 | 94 | 1010.2 |
| 20260506131525 | 75 | 177 | 0.0 | 0.0 | 0.00 | 0.00 | 0.00 | 94 | 1010.1 |
| 20260506130024 | 75 | 177 | 0.0 | 0.0 | 0.00 | 0.00 | 0.00 | 94 | 1009.9 |
| 20260506124521 | 75 | 177 | 0.0 | 0.0 | 0.00 | 0.00 | 0.00 | 94 | 1009.8 |
| 20260506123020 | 75 | 177 | 0.0 | 0.0 | 0.00 | 0.00 | 0.00 | 94 | 1009.7 |
| 20260506121518 | 75 | 177 | 0.0 | 0.0 | 0.00 | 0.00 | 0.00 | 94 | 1009.7 |
| 20260506120018 | 74 | 177 | 0.0 | 0.0 | 0.00 | 0.00 | 0.00 | 94 | 1009.6 |
| 20260506114521 | 74 | 177 | 0.0 | 0.0 | 0.00 | 0.00 | 0.00 | 94 | 1009.4 |
| 20260506113015 | 74 | 177 | 0.0 | 0.0 | 0.00 | 0.00 | 0.00 | 93 | 1009.2 |
| 20260506111514 | 74 | 177 | 0.0 | 0.0 | 0.00 | 0.00 | 0.00 | 93 | 1009.2 |
| 20260506110015 | 74 | 177 | 0.0 | 0.0 | 0.00 | 0.00 | 0.00 | 93 | 1008.8 |
| 20260506104533 | 75 | 177 | 0.0 | 0.0 | 0.00 | 0.00 | 0.00 | 93 | 1008.6 |
| 20260506103012 | 75 | 177 | 0.0 | 0.0 | 0.00 | 0.00 | 0.00 | 92 | 1008.6 |
| 20260506101511 | 75 | 177 | 0.0 | 0.0 | 0.00 | 0.00 | 0.00 | 92 | 1008.6 |
| 20260506100009 | 75 | 180 | 0.0 | 0.0 | 0.00 | 0.00 | 0.00 | 91 | 1008.6 |
| 20260506094509 | 76 | 173 | 0.0 | 1.0 | 0.00 | 0.00 | 0.00 | 91 | 1008.2 |
| 20260506093007 | 76 | 149 | 0.0 | 2.0 | 0.00 | 0.00 | 0.00 | 91 | 1008.2 |
| 20260506091506 | 76 | 149 | 0.0 | 2.0 | 0.00 | 0.00 | 0.00 | 91 | 1008.2 |
| 20260506090005 | 76 | 173 | 0.0 | 2.0 | 0.00 | 0.00 | 0.00 | 91 | 1008.1 |
| 20260506084506 | 76 | 177 | 0.0 | 2.0 | 0.00 | 0.00 | 0.00 | 91 | 1007.9 |
| 20260506083006 | 76 | 129 | 0.0 | 0.0 | 0.00 | 0.00 | 0.00 | 91 | 1008.1 |